This demonstration page uses our WeatherBlox Daily Observations layout. Learn more.

Left ArrowRight Arrow

40.92501, -98.34201

Hourly Observations for December 9, 2022

Temp ( °F °C ) Dew Point ( °F °C ) Humidity (%) Winds ( mph kmh ) Pressure ( in mb ) Visibility ( mi km ) Precip ( " mm )
12:01 am 00:01 Cloudy 30 -1.1 26 -3.3 85 85 W 13 20 30.16 1021 7 11 0.00 0.00
12:53 am 00:53 Cloudy with Light Snow 29 -1.7 26 -3.3 89 89 WNW 10 17 30.14 1021 4 6 0.01 0.13
1:17 am 01:17 Cloudy with Mist and Fog 31 -0.6 28 -2.2 89 89 NW 13 20 30.16 1021 5 8 0.01 0.13
1:39 am 01:39 Cloudy with Mist and Fog 31 -0.6 28 -2.2 89 89 NNW 13 20 30.16 1021 6 10 0.01 0.13
1:53 am 01:53 Cloudy with Mist and Fog 31 -0.6 28 -2.2 89 89 NNW 12 19 30.15 1021 6 10 0.01 0.13
2:53 am 02:53 Cloudy with Mist and Fog 30 -1.1 27 -2.8 88 88 NW 12 19 30.18 1022 5 8 0.00 0.00
3:28 am 03:28 Cloudy with Mist and Fog 30 -1.1 27 -2.8 88 88 NW 15 24 30.19 1022 5 8 0.00 0.00
3:53 am 03:53 Cloudy 31 -0.6 27 -2.8 85 85 NW 12 19 30.18 1022 7 11 0.00 0.00
4:53 am 04:53 Cloudy 31 -0.6 27 -2.8 85 85 NNW 16 26 30.19 1022 7 11 0.00 0.00
5:23 am 05:23 Cloudy 31 -0.6 27 -2.8 85 85 WNW 8 13 30.22 1023 7 11 0.00 0.00
5:53 am 05:53 Cloudy 31 -0.6 27 -2.8 85 85 NW 12 19 30.21 1023 8 13 0.00 0.00
6:29 am 06:29 Mostly Clear 31 -0.6 27 -2.8 85 85 WNW 7 11 30.24 1024 8 13 0.00 0.00
6:53 am 06:53 Cloudy 30 -1.1 27 -2.8 88 88 W 9 15 30.23 1024 8 13 0.00 0.00
7:46 am 07:46 Cloudy 29 -1.7 26 -3.3 89 89 W 8 13 30.26 1025 10 16 0.00 0.00
7:53 am 07:53 Cloudy 29 -1.7 26 -3.3 89 89 W 9 15 30.24 1024 10 16 0.00 0.00
8:53 am 08:53 Cloudy 30 -1.1 26 -3.3 85 85 WNW 7 11 30.23 1024 10 16 0.00 0.00
9:53 am 09:53 Partly Cloudy 32 0 27 -2.8 81 81 NW 5 7 30.24 1024 10 16 0.00 0.00
10:53 am 10:53 Partly Cloudy 33 0.6 28 -2.2 81 81 NNW 7 11 30.22 1024 10 16 0.00 0.00
11:07 am 11:07 Mostly Cloudy 33 0.6 28 -2.2 81 81 N 7 11 30.24 1024 10 16 0.00 0.00
11:53 am 11:53 Cloudy 33 0.6 29 -1.7 85 85 NE 5 7 30.22 1023 9 14 0.00 0.00
12:53 pm 12:53 Cloudy 34 1.1 29 -1.7 82 82 Calm 30.20 1023 7 11 0.00 0.00
1:53 pm 13:53 Cloudy with Mist and Fog 34 1.1 30 -1.1 85 85 Calm 30.18 1022 5 8 0.00 0.00
2:53 pm 14:53 Cloudy with Mist and Fog 34 1.1 30 -1.1 85 85 Calm 30.16 1022 5 8 0.00 0.00
3:53 pm 15:53 Cloudy with Mist and Fog 34 1.1 30 -1.1 85 85 ESE 7 11 30.16 1021 4 6 0.00 0.00
4:38 pm 16:38 Cloudy with Mist and Fog 34 1.1 30 -1.1 85 85 ESE 8 13 30.16 1021 6 10 0.00 0.00
4:53 pm 16:53 Cloudy with Mist and Fog 34 1.1 31 -0.6 88 88 ESE 6 9 30.15 1021 6 10 0.00 0.00
5:32 pm 17:32 Mostly Cloudy with Mist and Fog 32 0 29 -1.7 88 88 ESE 5 7 30.16 1021 6 10 0.00 0.00
5:46 pm 17:46 Partly Cloudy with Mist and Fog 31 -0.6 28 -2.2 89 89 SE 5 7 30.18 1022 6 10 0.00 0.00
5:53 pm 17:53 Mostly Clear with Mist and Fog 31 -0.6 28 -2.2 89 89 SE 6 9 30.15 1021 6 10 0.00 0.00
6:53 pm 18:53 Clear with Mist and Fog 29 -1.7 27 -2.8 92 92 E 7 11 30.13 1020 5 8 0.00 0.00
7:53 pm 19:53 Clear with Mist and Fog 26 -3.3 23 -5 88 88 SE 6 9 30.14 1021 3 5 0.00 0.00
8:50 pm 20:50 Mostly Cloudy with Mist and Fog 27 -3 23 -5 86 86 SSE 5 7 30.19 1022 3 4 0.00 0.00
8:53 pm 20:53 Mostly Cloudy with Mist and Fog 26 -3.3 24 -4.4 92 92 SSE 5 7 30.17 1022 3 4 0.00 0.00
8:58 pm 20:58 Mostly Cloudy with Mist and Fog 27 -2.8 24 -4.4 89 89 SE 3 6 30.20 1023 4 6 0.00 0.00
9:53 pm 21:53 Cloudy with Mist and Fog 30 -1.1 28 -2.2 92 92 SSE 8 13 30.15 1021 6 10 0.00 0.00
10:48 pm 22:48 Cloudy with Mist and Fog 32 0 30 -1 93 93 SSE 9 15 30.15 1021 5 8 0.00 0.00
10:53 pm 22:53 Cloudy with Mist and Fog 32 0 29 -1.7 88 88 S 8 13 30.14 1021 5 8 0.00 0.00
11:53 pm 23:53 Cloudy with Mist and Fog 31 -0.6 29 -1.7 92 92 S 10 17 30.15 1021 2 3 0.00 0.00

Powered by AerisWeather